timestamp,surface_pressure_avg,surface_temp_avg,battery_voltage,lat,long
2019-04-07 00:00:00+00:00,356.3096,1.4,12.89,47.84626,-54.09684
2019-04-07 00:10:00+00:00,355.8463,1.4,12.81,47.84626,-54.09684
2019-04-07 00:20:00+00:00,356.218,1.4,12.89,47.84626,-54.09684
2019-04-07 00:30:00+00:00,359.028,1.4,12.89,47.84626,-54.09684
2019-04-07 00:40:00+00:00,362.0596,1.4,12.97,47.84626,-54.09684
2019-04-07 00:50:00+00:00,363.3381,1.4,12.97,47.84626,-54.09684
2019-04-07 01:00:00+00:00,361.8579,1.4,12.89,47.84626,-54.09684
2019-04-07 01:10:00+00:00,362.3447,1.4,12.81,47.84626,-54.09684
2019-04-07 01:20:00+00:00,361.0329,1.4,12.89,47.84626,-54.09684
2019-04-07 01:30:00+00:00,355.5663,1.4,12.89,47.84626,-54.09684
2019-04-07 01:40:00+00:00,351.7513,1.4,12.89,47.84626,-54.09684
2019-04-07 01:50:00+00:00,348.2363,1.4,12.97,47.84626,-54.09684
2019-04-07 02:00:00+00:00,343.3314,1.4,12.81,47.84626,-54.09684
2019-04-07 02:10:00+00:00,337.7845,1.4,12.81,47.84626,-54.09684
2019-04-07 02:20:00+00:00,330.653,1.4,12.89,47.84626,-54.09684
2019-04-07 02:30:00+00:00,326.9514,1.4,12.89,47.84626,-54.09684
2019-04-07 02:40:00+00:00,322.908,1.4,12.89,47.84626,-54.09684
2019-04-07 02:50:00+00:00,316.0464,1.4,12.89,47.84626,-54.09684
2019-04-07 03:00:00+00:00,309.1079,1.4,12.81,47.84626,-54.09684
2019-04-07 03:10:00+00:00,300.7063,1.4,12.73,47.84626,-54.09684
2019-04-07 03:20:00+00:00,291.0664,1.43,12.81,47.84626,-54.09684
2019-04-07 03:30:00+00:00,281.0148,1.45,12.81,47.84626,-54.09684
2019-04-07 03:40:00+00:00,275.7313,1.4,12.89,47.84626,-54.09684
2019-04-07 03:50:00+00:00,265.9614,1.4,12.89,47.84626,-54.09684
2019-04-07 04:00:00+00:00,254.0881,1.4,12.81,47.84626,-54.09684
2019-04-07 04:10:00+00:00,247.6464,1.43,12.73,47.84626,-54.09684
2019-04-07 04:20:00+00:00,243.1148,1.45,12.81,47.84626,-54.09684
2019-04-07 04:30:00+00:00,233.4181,1.45,12.81,47.84626,-54.09684
2019-04-07 04:40:00+00:00,223.5114,1.43,12.81,47.84626,-54.09684
2019-04-07 04:50:00+00:00,220.7281,1.44,12.89,47.84626,-54.09684
2019-04-07 05:00:00+00:00,214.1731,1.45,12.81,47.84626,-54.09684
2019-04-07 05:10:00+00:00,203.1631,1.46,12.73,47.84626,-54.09684
2019-04-07 05:20:00+00:00,194.6099,1.47,12.81,47.84626,-54.09684
2019-04-07 05:30:00+00:00,193.2115,1.46,12.81,47.84626,-54.09684
2019-04-07 05:40:00+00:00,191.1281,1.46,12.81,47.84626,-54.09684
2019-04-07 05:50:00+00:00,181.0931,1.44,12.81,47.84626,-54.09684
2019-04-07 06:00:00+00:00,172.6265,1.4,12.73,47.84626,-54.09684
2019-04-07 06:10:00+00:00,173.4415,1.4,12.65,47.84626,-54.09684
2019-04-07 06:20:00+00:00,176.6131,1.4,12.73,47.84626,-54.09684
2019-04-07 06:30:00+00:00,170.5115,1.4,12.81,47.84626,-54.09684
2019-04-07 06:40:00+00:00,166.6465,1.4,12.81,47.84626,-54.09684
2019-04-07 06:50:00+00:00,173.2848,1.4,12.81,47.84626,-54.09684
2019-04-07 07:00:00+00:00,176.0598,1.4,12.73,47.84626,-54.09684
2019-04-07 07:10:00+00:00,172.2032,1.4,12.65,47.84626,-54.09684
2019-04-07 07:20:00+00:00,173.5598,1.4,12.73,47.84626,-54.09684
2019-04-07 07:30:00+00:00,178.2948,1.4,12.73,47.84626,-54.09684
2019-04-07 07:40:00+00:00,182.7565,1.4,12.81,47.84626,-54.09684
2019-04-07 07:50:00+00:00,186.6381,1.38,12.81,47.84626,-54.09684
2019-04-07 08:00:00+00:00,193.3232,1.3,12.73,47.84626,-54.09684
2019-04-07 08:10:00+00:00,203.5515,1.3,12.65,47.84626,-54.09684
2019-04-07 08:20:00+00:00,208.9648,1.2,12.73,47.84626,-54.09684
2019-04-07 08:30:00+00:00,212.9965,1.2,12.73,47.84626,-54.09684
2019-04-07 08:40:00+00:00,219.7914,1.1,12.73,47.84626,-54.09684
2019-04-07 08:50:00+00:00,225.7164,1.1,12.81,47.84626,-54.09684
2019-04-07 09:00:00+00:00,233.6914,1.1,12.73,47.84626,-54.09684
2019-04-07 09:10:00+00:00,237.1881,1.1,12.65,47.84626,-54.09684
2019-04-07 09:20:00+00:00,238.2781,1.14,12.73,47.84626,-54.09684
2019-04-07 09:30:00+00:00,244.408,1.2,12.73,47.84626,-54.09684
2019-04-07 09:40:00+00:00,254.2247,1.1,12.73,47.84626,-54.09684
2019-04-07 09:50:00+00:00,257.3898,1.14,12.81,47.84626,-54.09684
2019-04-07 10:00:00+00:00,258.0747,1.2,12.73,47.84626,-54.09684
2019-04-07 10:10:00+00:00,266.4431,1.2,12.65,47.84626,-54.09684
2019-04-07 10:20:00+00:00,275.0247,1.2,12.73,47.84626,-54.09684
2019-04-07 10:30:00+00:00,277.1997,1.2,12.73,47.84626,-54.09684
2019-04-07 10:40:00+00:00,279.9497,1.1,12.81,47.84626,-54.09684
2019-04-07 10:50:00+00:00,289.8714,1.0,12.81,47.84626,-54.09684
2019-04-07 11:00:00+00:00,298.5129,1.0,12.73,47.84626,-54.09684
2019-04-07 11:10:00+00:00,302.6713,0.93,12.73,47.84626,-54.09684
2019-04-07 11:20:00+00:00,309.6597,0.98,12.89,47.84626,-54.09684
2019-04-07 11:30:00+00:00,318.083,1.0,12.97,47.84626,-54.09684
2019-04-07 11:40:00+00:00,325.1863,1.0,13.21,47.84626,-54.09684
2019-04-07 11:50:00+00:00,328.4746,1.0,13.68,47.84626,-54.09684
2019-04-07 12:00:00+00:00,333.6729,1.0,14.0,47.84626,-54.09684
2019-04-07 12:10:00+00:00,338.053,1.0,14.0,47.84626,-54.09684
2019-04-07 12:20:00+00:00,340.2896,1.0,14.24,47.84626,-54.09684
2019-04-07 12:30:00+00:00,342.4647,0.95,14.32,47.84626,-54.09684
2019-04-07 12:40:00+00:00,343.1563,0.91,14.32,47.84626,-54.09684
2019-04-07 12:50:00+00:00,343.1313,0.9,14.32,47.84626,-54.09684
2019-04-07 13:00:00+00:00,343.3397,0.84,14.24,47.84626,-54.09684
2019-04-07 13:10:00+00:00,343.683,0.9,14.16,47.84626,-54.09684
2019-04-07 13:20:00+00:00,341.2547,0.9,14.4,47.84626,-54.09684
2019-04-07 13:30:00+00:00,342.0197,0.84,14.48,47.84626,-54.09684
2019-04-07 13:40:00+00:00,340.3913,0.84,14.48,47.84626,-54.09684
2019-04-07 13:50:00+00:00,329.8147,0.89,14.56,47.84626,-54.09684
2019-04-07 14:00:00+00:00,324.708,0.95,14.48,47.84626,-54.09684
2019-04-07 14:10:00+00:00,322.1313,1.0,14.4,47.84626,-54.09684
2019-04-07 14:20:00+00:00,317.2346,1.0,14.48,47.84626,-54.09684
2019-04-07 14:30:00+00:00,312.6064,0.9,14.48,47.84626,-54.09684
2019-04-07 14:40:00+00:00,313.038,0.89,14.48,47.84626,-54.09684
2019-04-07 14:50:00+00:00,310.1697,0.89,14.48,47.84626,-54.09684
2019-04-07 15:00:00+00:00,304.5847,0.9,14.4,47.84626,-54.09684
2019-04-07 15:10:00+00:00,301.5414,0.9,14.32,47.84626,-54.09684
2019-04-07 15:20:00+00:00,297.528,0.87,14.48,47.84626,-54.09684
2019-04-07 15:30:00+00:00,288.898,0.87,14.56,47.84626,-54.09684
2019-04-07 15:40:00+00:00,279.5613,0.9,14.48,47.84626,-54.09684
2019-04-07 15:50:00+00:00,273.9781,0.9,14.48,47.84626,-54.09684
2019-04-07 16:00:00+00:00,267.9747,0.9,14.32,47.84626,-54.09684
2019-04-07 16:10:00+00:00,256.1564,0.9,14.32,47.84626,-54.09684
2019-04-07 16:20:00+00:00,248.0481,0.93,14.56,47.84626,-54.09684
2019-04-07 16:30:00+00:00,242.0281,0.95,14.48,47.84626,-54.09684
2019-04-07 16:40:00+00:00,233.5681,0.97,14.48,47.84626,-54.09684
2019-04-07 16:50:00+00:00,227.1414,0.99,14.48,47.84626,-54.09684
2019-04-07 17:00:00+00:00,221.2664,1.0,14.32,47.84626,-54.09684
2019-04-07 17:10:00+00:00,209.2464,1.1,14.32,47.84626,-54.09684
2019-04-07 17:20:00+00:00,197.8631,1.17,14.48,47.84626,-54.09684
2019-04-07 17:30:00+00:00,196.1781,1.26,14.48,47.84626,-54.09684
2019-04-07 17:40:00+00:00,193.3231,1.39,14.56,47.84626,-54.09684
2019-04-07 17:50:00+00:00,183.3098,1.3,14.48,47.84626,-54.09684
2019-04-07 18:00:00+00:00,178.4415,1.2,14.4,47.84626,-54.09684
2019-04-07 18:10:00+00:00,178.9482,1.2,14.24,47.84626,-54.09684
2019-04-07 18:20:00+00:00,176.7664,1.2,14.4,47.84626,-54.09684
2019-04-07 18:30:00+00:00,175.9164,1.2,14.48,47.84626,-54.09684
2019-04-07 18:40:00+00:00,180.6215,1.2,14.56,47.84626,-54.09684
2019-04-07 18:50:00+00:00,183.7765,1.2,14.56,47.84626,-54.09684
2019-04-07 19:00:00+00:00,186.6614,1.2,14.48,47.84626,-54.09684
2019-04-07 19:10:00+00:00,189.0215,1.2,14.32,47.84626,-54.09684
2019-04-07 19:20:00+00:00,190.6048,1.21,14.48,47.84626,-54.09684
2019-04-07 19:30:00+00:00,195.5715,1.22,14.48,47.84626,-54.09684
2019-04-07 19:40:00+00:00,199.3814,1.3,14.48,47.84626,-54.09684
2019-04-07 19:50:00+00:00,202.8881,1.25,14.48,47.84626,-54.09684
2019-04-07 20:00:00+00:00,208.2214,1.26,14.32,47.84626,-54.09684
2019-04-07 20:10:00+00:00,216.7231,1.29,14.24,47.84626,-54.09684
2019-04-07 20:20:00+00:00,225.7264,1.3,14.24,47.84626,-54.09684
2019-04-07 20:30:00+00:00,229.4698,1.2,14.24,47.84626,-54.09684
2019-04-07 20:40:00+00:00,233.7398,1.1,14.24,47.84626,-54.09684
2019-04-07 20:50:00+00:00,242.0063,1.0,14.24,47.84626,-54.09684
2019-04-07 21:00:00+00:00,249.5981,1.09,14.08,47.84626,-54.09684
2019-04-07 21:10:00+00:00,253.8464,0.9,13.92,47.84626,-54.09684
2019-04-07 21:20:00+00:00,258.4398,0.83,13.92,47.84626,-54.09684
2019-04-07 21:30:00+00:00,265.4564,0.8,13.84,47.84626,-54.09684
2019-04-07 21:40:00+00:00,269.9814,0.8,13.84,47.84626,-54.09684
2019-04-07 21:50:00+00:00,274.3781,0.8,13.76,47.84626,-54.09684
2019-04-07 22:00:00+00:00,281.4265,0.75,13.68,47.84626,-54.09684
2019-04-07 22:10:00+00:00,288.8564,0.72,13.44,47.84626,-54.09684
2019-04-07 22:20:00+00:00,291.4664,0.75,13.44,47.84626,-54.09684
2019-04-07 22:30:00+00:00,298.283,0.77,13.37,47.84626,-54.09684
2019-04-07 22:40:00+00:00,309.9363,0.78,13.37,47.84626,-54.09684
2019-04-07 22:50:00+00:00,318.0046,0.77,13.37,47.84626,-54.09684
2019-04-07 23:00:00+00:00,321.4964,0.78,13.29,47.84626,-54.09684
2019-04-07 23:10:00+00:00,326.403,0.79,13.13,47.84626,-54.09684
2019-04-07 23:20:00+00:00,333.8846,0.74,13.13,47.84626,-54.09684
2019-04-07 23:30:00+00:00,337.158,0.74,13.05,47.84626,-54.09684
2019-04-07 23:40:00+00:00,341.8497,0.77,13.05,47.84626,-54.09684
2019-04-07 23:50:00+00:00,350.0113,0.74,13.05,47.84626,-54.09684
